Wind_Speed
10 11 12 13 14 13 14 17 19 18 17 17 20 22 18 18 20 19 27 24 19 20 17 15 12 9 6 7 5 9 13 17 20 21 19 17 14 12 11 11 15 17 19
11 12 13 14 16 16 16 18 20 23 21 20 19 22 20 20 21 17 27 27 20 21 20 18 13 9 7 7 4 8 12 17 20 20 20 16 8 7 10 12 16 19 19
15 15 15 18 18 18 19 19 20 22 23 22 20 22 22 22 22 25 29 28 24 22 23 20 15 11 8 5 3 7 13 18 21 20 15 9 7 8 10 12 14 17 17
15 16 18 19 19 20 21 19 18 20 25 27 24 25 23 23 22 23 27 27 23 23 25 22 17 12 8 6 2 7 13 18 20 17 10 8 8 9 10 12 13 16 19
16 15 18 21 23 24 25 22 20 21 25 29 28 25 24 24 20 21 22 18 21 24 26 22 17 14 11 7 3 6 12 16 17 14 9 8 8 8 9 10 12 15 18
18 18 20 27 30 28 23 21 23 23 25 27 28 23 24 23 24 22 28 25 20 25 25 23 18 16 12 9 4 5 11 14 13 12 8 7 11 11 11 12 13 13 17
19 23 27 25 22 20 18 21 20 22 27 28 27 24 22 26 21 27 34 34 24 28 27 24 19 16 12 8 5 4 9 13 8 9 10 7 9 12 13 14 14 16 19
21 24 20 14 12 13 18 19 19 23 27 26 26 23 24 24 26 28 28 34 27 29 30 26 22 18 11 8 7 2 6 11 10 8 8 8 9 11 10 15 16 19 20
20 24 19 14 13 14 16 19 20 23 23 24 23 23 22 24 23 26 30 32 30 32 31 26 25 18 12 10 8 4 5 9 10 11 11 10 9 12 13 14 16 18 21
18 18 18 16 11 14 16 18 20 22 23 23 24 24 26 24 24 27 41 34 34 35 32 28 24 20 14 13 10 7 4 6 9 11 12 12 13 12 13 15 17 19 22
16 16 15 14 13 17 19 17 17 17 20 22 25 27 27 28 30 30 47 33 36 36 31 29 24 20 16 14 12 9 6 6 8 10 10 12 13 14 16 18 20 23 26
16 11 8 5 6 12 14 17 16 15 18 22 25 28 27 26 26 50 38 38 37 35 31 27 24 21 18 14 14 13 11 9 10 10 12 13 15 17 18 20 22 24 27
17 12 12 10 11 10 10 15 16 14 16 18 20 24 27 26 23 37 32 35 35 35 30 27 25 22 18 14 14 15 15 14 13 13 13 15 16 17 19 20 22 24 28
20 20 17 17 13 13 12 13 13 14 17 17 26 24 24 22 38 33 30 33 33 33 31 29 26 24 19 15 15 17 17 17 17 17 17 18 18 20 21 22 24 26 29
23 25 23 21 17 18 7 11 15 14 13 13 16 19 19 30 44 34 30 32 34 31 30 27 25 24 22 19 19 19 19 19 19 20 20 20 21 20 22 23 25 26 28
26 25 23 21 21 22 16 14 13 12 13 19 13 18 21 32 34 33 33 35 30 27 25 25 27 29 27 25 24 23 23 22 21 20 22 22 23 22 23 25 27 29 32
30 26 30 24 23 25 26 21 12 11 15 10 10 18 20 23 23 26 27 26 26 25 27 28 30 30 30 31 30 28 27 26 24 23 21 21 23 23 25 28 30 33 32
40 35 34 29 25 25 22 23 14 10 16 22 19 19 22 20 21 19 20 20 23 26 29 29 30 32 34 33 32 31 30 28 27 27 24 24 24 26 27 30 33 35 35
36 53 44 35 28 26 27 26 24 16 14 19 19 17 20 22 21 21 21 24 26 25 27 28 30 31 33 32 30 30 31 29 27 26 25 26 27 30 31 33 35 35 38
46 49 51 38 34 30 30 30 29 22 20 19 20 23 24 24 25 26 27 28 28 28 27 28 29 29 29 29 30 30 28 27 26 26 27 29 29 30 34 36 36 35 39
52 51 53 42 38 36 36 36 30 25 25 26 26 26 28 28 29 28 29 29 31 32 32 32 31 31 32 32 32 32 30 29 29 30 32 33 33 34 34 34 35 37 39
51 49 46 33 38 38 43 45 39 33 29 27 29 32 31 30 30 31 31 31 31 31 30 31 33 34 36 35 34 33 32 31 31 34 36 36 36 36 36 36 36 42 40
62 56 55 53 52 47 48 48 44 33 36 34 32 33 34 34 33 32 31 33 34 33 33 32 32 34 35 36 37 37 37 37 38 39 37 36 37 37 37 35 35 41 42
68 64 63 65 64 69 56 74 44 38 35 33 34 33 33 33 33 32 33 33 33 33 34 35 35 36 37 38 39 40 41 41 40 40 40 37 36 35 35 37 39 43 43
74 72 72 73 76 61 54 38 57 50 35 29 32 32 33 33 31 33 36 37 37 36 35 37 39 38 38 39 40 41 43 43 41 40 41 39 36 33 36 40 45 40 37
74 75 76 74 71 68 57 57 18 27 30 31 31 31 30 28 31 37 38 40 40 42 43 45 45 44 43 42 41 43 43 45 45 40 38 42 41 38 41 41 33 34 37
Wind_Direction
282 281 277 270 270 269 266 264 261 252 244 241 231 226 226 230 232 225 221 220 206 201 194 192 195 218 239 271 318 335 349 347 347 349 347 350 355 5 8 15 25 20 14
291 286 280 281 279 277 276 274 260 248 239 232 234 228 227 233 236 244 215 214 202 200 193 192 199 224 228 258 323 345 347 347 349 347 340 346 14 15 19 24 18 24 18
286 280 284 278 279 281 283 280 261 245 233 230 223 226 230 230 236 238 214 200 197 198 193 192 205 220 220 256 321 345 349 351 347 349 346 4 49 31 33 21 19 25 22
288 287 285 281 276 280 290 281 253 235 229 226 224 228 231 229 238 238 230 181 195 198 197 197 209 221 217 245 319 344 350 351 353 359 9 15 39 46 36 28 24 23 18
288 288 289 286 283 286 288 268 234 229 227 224 229 219 227 232 234 228 200 193 197 198 200 201 209 218 218 228 264 337 351 359 0 10 16 35 27 25 32 19 20 19 14
295 293 292 288 284 281 275 246 229 231 222 220 226 222 227 228 237 226 215 201 200 200 199 205 210 215 220 222 248 334 359 7 360 6 18 25 20 10 15 16 11 6 9
297 303 307 294 280 257 245 229 224 223 215 217 224 225 227 225 230 220 222 193 200 199 199 205 211 212 219 220 235 319 357 9 2 13 17 10 6 8 17 16 10 5 2
302 317 313 297 284 251 229 225 215 208 212 219 228 225 225 233 235 222 223 199 206 198 200 204 204 210 217 211 231 290 358 9 7 0 7 358 9 10 16 15 17 14 13
309 320 309 287 277 247 230 227 216 212 215 222 230 232 230 229 235 212 210 202 203 201 203 203 204 212 217 216 229 256 5 11 8 0 357 356 359 5 12 7 7 4 358
302 315 312 267 259 255 238 233 222 219 221 231 234 240 240 237 234 230 202 202 202 204 204 204 204 217 225 224 235 257 306 346 358 2 6 6 358 359 1 5 2 357 353
291 316 312 275 262 251 241 231 232 229 232 235 238 237 235 233 231 225 188 208 204 205 203 206 206 218 230 230 238 255 273 307 330 339 349 351 355 354 354 350 347 346 346
275 302 326 283 311 247 233 237 242 252 249 260 243 230 233 224 235 182 201 204 204 204 204 206 208 219 227 235 242 254 271 283 302 319 329 339 344 344 344 344 343 345 343
254 267 289 294 300 285 255 256 267 273 266 278 239 221 218 223 211 194 200 201 202 207 209 211 213 221 228 236 247 258 271 283 293 306 317 325 329 333 335 339 340 340 338
244 248 263 277 279 286 292 272 287 277 281 277 214 212 223 220 192 195 207 204 204 210 213 213 216 226 232 238 253 261 272 281 292 298 308 316 322 328 334 337 336 335 331
248 247 254 257 254 265 276 268 292 286 284 219 209 208 213 190 189 207 210 208 211 213 217 217 224 232 239 245 254 266 273 281 289 298 301 307 315 322 327 327 328 325 323
247 245 243 241 232 243 260 287 294 272 225 191 211 214 205 196 197 206 208 211 214 218 222 225 230 236 243 250 254 259 267 276 284 291 295 304 308 312 316 320 320 320 325
252 251 255 235 233 234 252 264 281 258 241 191 229 222 198 189 201 204 211 218 226 232 236 239 240 243 247 250 255 259 266 274 285 293 294 296 300 304 310 313 314 318 325
265 243 251 247 231 233 247 260 257 257 210 236 258 236 216 207 211 214 219 225 232 238 243 243 240 241 246 254 261 268 273 280 284 290 291 292 298 303 307 309 313 318 321
266 244 240 238 236 239 242 248 253 243 232 226 243 242 225 220 221 226 231 235 240 243 246 245 244 248 253 261 270 275 277 280 284 287 289 293 297 302 306 308 311 316 318
263 252 228 226 229 230 238 239 240 235 234 239 239 233 233 229 229 230 233 236 240 242 246 249 250 254 260 265 269 272 277 280 279 281 285 289 293 299 303 305 311 315 313
254 258 246 208 227 231 235 239 231 225 225 229 230 233 236 233 233 234 235 239 245 249 249 252 257 261 263 265 269 272 277 282 287 291 291 291 293 297 298 304 310 311 312
256 260 269 246 228 227 237 230 233 232 229 226 231 235 237 237 239 242 241 243 244 246 251 254 257 260 264 268 271 275 279 280 282 284 287 291 293 294 297 301 303 308 308
250 252 256 256 255 259 223 236 225 224 230 232 233 236 240 242 239 241 245 247 247 247 248 250 253 256 259 263 268 271 273 274 277 280 282 285 288 292 295 301 303 314 311
249 252 253 257 258 252 252 220 224 222 223 225 234 248 237 243 246 248 250 249 251 254 253 251 252 255 256 258 259 261 264 267 271 275 278 280 283 287 293 297 299 301 304
250 250 250 251 255 254 247 251 240 210 216 225 233 241 249 240 248 250 255 256 260 258 258 262 263 260 259 263 266 267 268 269 270 272 274 274 277 282 285 294 293 296 301
250 251 253 255 257 260 254 257 242 229 234 235 239 250 258 256 251 248 251 256 258 262 264 264 261 262 263 263 265 266 267 271 270 271 274 275 274 277 278 286 287 295 297
Height
5903 5904 5905 5904 5905 5905 5906 5906 5906 5908 5908 5910 5913 5914 5917 5919 5921 5924 5928 5930 5931 5937 5941 5944 5945 5947 5948 5947 5947 5947 5945 5944 5941 5938 5935 5932 5930 5928 5927 5925 5924 5922 5919
5900 5900 5900 5901 5900 5900 5901 5901 5901 5902 5904 5905 5908 5911 5913 5915 5917 5918 5922 5926 5930 5935 5939 5942 5944 5946 5946 5947 5947 5947 5945 5943 5941 5937 5934 5930 5929 5928 5927 5925 5923 5922 5919
5897 5896 5896 5895 5895 5895 5895 5895 5895 5896 5899 5901 5902 5907 5909 5912 5914 5916 5918 5920 5927 5932 5936 5939 5941 5943 5944 5947 5947 5947 5945 5942 5938 5935 5932 5929 5928 5927 5927 5926 5924 5922 5920
5892 5891 5891 5890 5889 5890 5889 5889 5889 5891 5894 5898 5898 5903 5905 5908 5909 5912 5912 5916 5924 5930 5933 5937 5939 5941 5943 5945 5946 5945 5944 5941 5937 5934 5932 5930 5928 5927 5926 5925 5924 5922 5920
5888 5887 5887 5886 5884 5883 5883 5882 5884 5885 5888 5892 5894 5898 5901 5903 5907 5909 5912 5916 5922 5927 5930 5934 5937 5939 5941 5943 5945 5944 5943 5940 5937 5935 5932 5931 5929 5927 5926 5925 5923 5921 5920
5884 5883 5882 5879 5877 5875 5875 5875 5879 5881 5884 5887 5890 5892 5897 5900 5903 5906 5909 5915 5920 5924 5928 5931 5934 5937 5940 5942 5943 5943 5941 5939 5937 5935 5932 5931 5930 5929 5926 5924 5922 5920 5918
5879 5877 5873 5869 5866 5866 5868 5871 5873 5876 5879 5883 5886 5888 5892 5896 5900 5902 5905 5911 5916 5920 5924 5929 5932 5936 5938 5940 5942 5941 5940 5938 5936 5934 5932 5931 5930 5928 5926 5924 5922 5920 5917
5875 5871 5867 5864 5863 5862 5865 5868 5870 5873 5877 5880 5880 5883 5888 5892 5895 5898 5901 5907 5912 5916 5921 5925 5929 5933 5936 5938 5939 5939 5938 5937 5935 5933 5931 5931 5929 5927 5925 5923 5920 5918 5916
5871 5867 5864 5863 5862 5862 5863 5866 5869 5871 5873 5877 5879 5881 5884 5888 5891 5895 5900 5904 5909 5914 5918 5922 5926 5930 5933 5935 5936 5937 5936 5935 5934 5933 5930 5929 5927 5925 5923 5921 5919 5917 5914
5868 5866 5863 5862 5861 5862 5863 5865 5867 5869 5870 5873 5875 5878 5881 5884 5887 5888 5893 5900 5905 5910 5914 5919 5923 5927 5929 5932 5934 5934 5933 5933 5932 5931 5929 5927 5926 5924 5922 5920 5918 5915 5913
5866 5864 5862 5860 5860 5861 5862 5862 5864 5866 5867 5868 5869 5872 5875 5878 5881 5885 5892 5897 5901 5906 5911 5915 5919 5923 5927 5929 5931 5932 5931 5931 5930 5929 5927 5926 5924 5922 5921 5919 5916 5914 5911
5864 5862 5861 5860 5860 5860 5860 5861 5861 5861 5863 5862 5862 5865 5869 5872 5875 5880 5887 5893 5898 5903 5908 5912 5915 5920 5922 5924 5926 5928 5928 5928 5928 5927 5926 5924 5922 5921 5919 5916 5914 5912 5908
5859 5860 5859 5860 5860 5860 5859 5860 5859 5857 5858 5856 5857 5860 5864 5867 5870 5878 5885 5890 5895 5901 5905 5909 5913 5916 5918 5920 5922 5923 5924 5925 5925 5924 5923 5922 5921 5919 5916 5914 5911 5907 5903
5854 5855 5855 5857 5858 5857 5856 5856 5856 5855 5854 5852 5856 5859 5862 5864 5870 5879 5884 5888 5892 5897 5901 5904 5908 5912 5915 5916 5918 5918 5919 5920 5921 5920 5919 5918 5916 5914 5912 5909 5906 5902 5897
5848 5849 5850 5851 5853 5854 5853 5853 5853 5852 5852 5852 5854 5857 5859 5862 5869 5877 5882 5885 5889 5894 5897 5901 5905 5909 5911 5911 5912 5914 5914 5915 5915 5914 5914 5913 5912 5910 5907 5903 5900 5896 5892
5844 5843 5843 5843 5845 5848 5850 5851 5851 5851 5852 5853 5856 5857 5858 5860 5866 5873 5878 5882 5887 5891 5894 5897 5901 5904 5905 5906 5906 5907 5908 5908 5909 5909 5908 5907 5907 5905 5901 5898 5894 5890 5885
5841 5840 5841 5838 5839 5841 5844 5846 5848 5850 5851 5853 5855 5856 5858 5861 5865 5871 5875 5880 5884 5887 5890 5893 5896 5898 5899 5899 5900 5901 5903 5904 5904 5904 5904 5902 5900 5898 5895 5891 5887 5883 5879
5832 5836 5837 5836 5832 5836 5840 5842 5843 5846 5849 5853 5854 5856 5858 5861 5864 5868 5872 5875 5878 5881 5884 5887 5889 5890 5891 5892 5894 5896 5897 5898 5899 5898 5896 5894 5893 5890 5887 5883 5879 5875 5870
5823 5823 5826 5827 5827 5829 5832 5836 5837 5840 5843 5847 5849 5852 5855 5857 5861 5864 5867 5870 5873 5876 5878 5879 5881 5883 5886 5888 5889 5891 5891 5891 5891 5891 5889 5887 5884 5882 5880 5876 5871 5868 5863
5814 5814 5812 5797 5817 5817 5822 5827 5829 5832 5834 5837 5840 5845 5850 5851 5854 5857 5860 5863 5866 5868 5870 5873 5875 5877 5879 5880 5880 5881 5882 5883 5882 5882 5880 5878 5876 5874 5872 5868 5865 5861 5855
5798 5788 5782 5788 5805 5808 5812 5817 5818 5819 5824 5829 5832 5837 5840 5842 5845 5849 5851 5854 5857 5860 5863 5864 5866 5868 5869 5870 5872 5873 5873 5874 5875 5874 5871 5870 5868 5865 5863 5861 5857 5852 5847
5782 5783 5780 5774 5783 5796 5802 5802 5808 5810 5813 5816 5821 5827 5830 5834 5839 5841 5844 5847 5849 5852 5853 5856 5859 5861 5862 5862 5863 5863 5864 5864 5864 5862 5861 5861 5859 5857 5855 5851 5847 5843 5838
5769 5776 5777 5781 5781 5786 5789 5792 5793 5799 5800 5804 5810 5814 5821 5825 5829 5831 5835 5837 5839 5841 5843 5845 5848 5850 5852 5854 5855 5854 5853 5853 5852 5850 5850 5849 5849 5847 5844 5842 5838 5834 5829
5751 5758 5762 5760 5763 5772 5770 5750 5741 5780 5795 5791 5797 5802 5811 5813 5817 5821 5824 5827 5829 5831 5834 5835 5837 5838 5839 5840 5841 5842 5842 5840 5839 5839 5839 5838 5837 5835 5834 5831 5828 5824 5819
5733 5740 5744 5744 5744 5751 5751 5736 5725 5763 5778 5783 5784 5791 5795 5802 5805 5808 5811 5814 5817 5820 5822 5824 5826 5828 5828 5829 5830 5831 5832 5832 5830 5829 5827 5826 5825 5825 5822 5819 5817 5814 5811
5714 5720 5722 5728 5732 5732 5737 5742 5737 5759 5767 5772 5772 5778 5784 5787 5793 5797 5799 5801 5804 5806 5808 5809 5812 5815 5818 5818 5819 5819 5820 5820 5819 5819 5817 5814 5814 5810 5808 5807 5805 5803 5801